Location: Austin
(30.3000°N, 97.7500°W)
Time: 05:46:26
(UTC-06:00)

Cosmos 1821 Rocket - Pass Details

Date: 05 February 2026
Orbit: 943 x 1004 km, 82.9° (Epoch: 14 February)

Event Time Altitude Azimuth Distance (km) Brightness Sun altitude
Rises 04:55:38 0° 180° (S) 3,695 7.0 -31.3°
Reaches altitude 10° 04:58:10 10° 179° (S) 2,742 6.3 -30.7°
Maximum altitude 05:04:27 79° 94° (E) 1,000 4.0 -29.4°
Drops below altitude 10° 05:10:41 10° 8° (N) 2,714 6.4 -28.0°
Sets 05:13:10 0° 8° (N) 3,655 7.1 -27.5°
